Home   Weather   Valladolid   Past weeks

Flag for Spain Past Weather in Valladolid, Spain — Yesterday and Last 2 Weeks

Now
72 °F

Sunny.


Feels Like: 77 °F
Forecast: 53 / 82 °F
Wind: 13 mph from Northeast

Location: Valladolid / Villanubla

Current Time: May 22, 2017 at 9:36:27 pm

Latest Report: May 22, 2017 at 9:00 pm


Visibility: 10 mi

Pressure: 30.07 "Hg (27.69 "Hg at 712m altitude)

Humidity: 50%

Dew Point: 52 °F

Location of ValladolidLocation

Past Weather in Valladolid — Graph

°F

Valladolid Temperature Yesterday

Maximum temperature yesterday: 79 °F (at 3:32 pm)
Minimum temperature yesterday: 52 °F (at 7:00 am)
Average temperature yesterday: 69 °F

High & Low Weather Summary for the Past Weeks

 TemperatureHumidityPressure
High81 °F (May 16, 6:00 pm)100% (May 12, 7:00 am)30.39 "Hg (May 12, 7:00 am)
Low36 °F (May 19, 7:30 am)23% (May 20, 6:00 pm)29.47 "Hg (May 11, 7:30 am)
Average62 °F57%30.01 "Hg
* Reported May 7 8:00 pm — May 22 8:00 pm, Valladolid. Weather by CustomWeather, © 2017

Note: Actual official high and low records may vary slightly from our data, if they occured in-between our weather recording intervals... More about our weather records

Advertising

Valladolid Weather History for the Previous 24 Hours

Scroll right to see more
 ConditionsComfort  
Time TempWeatherWind HumidityBarometerVisibility
8:00 pm
Mon, May 22
75 °FSunny.8 mph39%30.04 "Hg10 mi
7:30 pm77 °FPassing clouds.7 mph39%30.04 "HgN/A
7:00 pm77 °FPassing clouds.6 mph36%30.04 "HgN/A
6:30 pm77 °FPassing clouds.5 mph36%30.07 "HgN/A
6:00 pm79 °FSunny.2 mph37%30.07 "Hg10 mi
5:30 pm75 °FPassing clouds.6 mph39%30.07 "HgN/A
5:00 pm79 °FSunny.2 mph34%30.07 "Hg10 mi
4:30 pm79 °FSunny.2 mph37%30.07 "Hg10 mi
4:00 pm77 °FSunny.3 mph42%30.07 "Hg10 mi
3:30 pm75 °FSunny.1 mph39%30.07 "Hg10 mi
3:00 pm75 °FSunny.5 mph39%30.07 "Hg10 mi
2:30 pm75 °FSunny.3 mph41%30.07 "Hg10 mi
2:00 pm73 °FPassing clouds.8 mph41%30.07 "HgN/A
1:30 pm75 °FPassing clouds.6 mph41%30.07 "HgN/A
1:00 pm73 °FSunny.3 mph44%30.07 "Hg10 mi
12:30 pm72 °FPassing clouds.3 mph47%30.07 "HgN/A
12:00 pm72 °FPassing clouds.8 mph50%30.07 "HgN/A
11:30 am70 °FPassing clouds.8 mph53%30.07 "HgN/A
11:00 am68 °FPassing clouds.8 mph53%30.07 "HgN/A
10:30 am66 °FPassing clouds.8 mph56%30.07 "HgN/A
10:00 am64 °FSunny.7 mph56%30.07 "Hg10 mi
9:30 am63 °FSunny.6 mph56%30.07 "Hg10 mi
9:00 am59 °FPassing clouds.5 mph63%30.07 "HgN/A
8:00 am57 °FPassing clouds.5 mph59%30.04 "HgN/A
7:30 am54 °FSunny.7 mph67%30.04 "Hg10 mi
7:00 am54 °FSunny.7 mph67%30.04 "Hg10 mi
9:30 pm
Sun, May 21
70 °FPassing clouds.9 mph38%29.98 "HgN/A
9:00 pm73 °FPassing clouds.14 mph31%29.98 "HgN/A
Weather by CustomWeather, © 2017

See weather overviewHow to use our weather pages